CST,Max TemperatureF,Mean TemperatureF,Min TemperatureF,Max Dew PointF,MeanDew PointF,Min DewpointF,Max Humidity, Mean Humidity, Min Humidity, Max Sea Level PressureIn, Mean Sea Level PressureIn, Min Sea Level PressureIn, Max VisibilityMiles, Mean VisibilityMiles, Min VisibilityMiles, Max Wind SpeedMPH, Mean Wind SpeedMPH, Max Gust SpeedMPH,PrecipitationIn, CloudCover, Events, WindDirDegrees
2013-2-1,21,5,-11,16,-5,-18,80,68,57,30.33,30.18,29.97,10,10,8,21,12,23,0.00,4,Snow,219
2013-2-2,30,18,6,25,10,0,93,77,62,30.16,30.05,29.93,10,9,2,31,12,40,0.00,5,Snow,290
2013-2-3,28,19,10,21,14,5,86,76,68,30.12,29.99,29.77,10,10,7,32,18,38,0.00,5,Rain-Snow,262
2013-2-4,24,19,14,18,14,9,86,77,63,30.01,29.91,29.77,10,10,9,18,10,21,0.00,5,Snow,30
2013-2-5,37,27,17,30,23,14,93,84,70,30.09,29.89,29.74,10,9,3,22,13,29,0.00,5,,293
2013-2-6,37,26,14,34,24,10,93,85,79,30.10,29.99,29.89,10,9,5,23,9,30,0.01,4,Rain,154
2013-2-7,35,30,24,32,27,21,100,93,80,30.19,30.02,29.89,10,5,0,20,10,30,0.00,7,Fog,355
2013-2-8,28,24,21,23,21,18,93,83,74,30.34,30.27,30.20,10,10,9,20,10,24,0.00,7,,121
2013-2-9,33,28,24,28,26,23,93,89,81,30.23,30.04,29.84,10,7,4,26,19,32,0.00,8,Rain,157
2013-2-10,39,34,28,39,33,27,100,94,81,29.82,29.44,29.23,10,3,0,32,20,41,0.26,8,Fog-Rain-Snow,165
2013-2-11,28,24,21,27,20,16,93,79,74,30.10,29.88,29.49,10,8,1,37,26,47,0.00,8,Rain-Snow,296
2013-2-12,39,29,19,30,24,16,93,81,61,30.11,29.97,29.84,10,10,7,20,10,23,0.00,2,,242
2013-2-13,44,34,23,37,29,21,93,84,66,29.85,29.73,29.62,10,10,9,17,8,23,0.00,2,,251
2013-2-14,35,27,17,32,26,10,100,85,68,30.17,29.90,29.66,10,8,0,25,17,33,0.02,6,Snow,317
2013-2-15,23,16,10,14,9,5,85,72,63,30.30,30.27,30.19,10,10,10,18,14,23,0.00,2,,323
2013-2-16,30,18,6,21,12,3,86,78,59,30.27,30.15,30.06,10,10,10,13,5,,0.00,3,,180
2013-2-17,37,27,17,28,22,14,86,77,70,30.06,29.87,29.60,10,10,10,28,16,33,0.00,0,,148
2013-2-18,35,22,8,32,20,1,93,79,67,29.88,29.67,29.54,10,9,3,34,18,44,0.00,5,Rain-Snow,300
2013-2-19,15,8,0,3,-4,-9,72,62,49,30.36,30.13,29.89,10,10,6,32,26,44,0.00,3,Rain-Snow,322
2013-2-20,23,10,-2,10,0,-9,79,64,46,30.42,30.35,30.30,10,10,10,15,9,20,0.00,0,,42
2013-2-21,24,18,12,16,11,7,86,73,59,30.34,30.14,29.89,10,8,1,23,14,30,0.05,4,Snow,82
2013-2-22,23,14,5,19,16,1,93,85,74,29.93,29.86,29.79,10,7,0,22,15,28,0.01,6,Rain-Snow,346
2013-2-23,24,12,1,18,10,-2,93,82,69,29.92,29.90,29.88,10,10,9,13,8,,0.00,1,Snow,213
2013-2-24,30,18,6,25,17,3,86,83,74,30.07,30.00,29.92,10,6,4,12,7,,0.00,4,,125
2013-2-25,32,28,24,30,25,21,93,89,80,30.09,30.04,29.94,5,3,2,13,5,,0.00,4,Rain-Snow,35
2013-2-26,32,28,24,27,24,21,93,84,75,29.94,29.83,29.77,10,5,2,21,13,25,0.00,1,Rain,17
2013-2-27,30,26,21,25,21,18,93,85,75,29.99,29.86,29.79,10,8,4,24,16,34,0.00,7,Rain,338
2013-2-28,28,24,19,25,21,16,93,84,80,30.16,30.10,29.98,10,10,7,18,13,24,0.00,8,Rain,336